< Cyclone 200711 2007 Season Cyclone 200713 >
Cyclone 200712 (JACOB)
General InformationTrack Information on Google MapsDetailed Wind InformationList of All Images || ResourceGoogle EarthGE AnimationAtom FeedGeoJSON
Detalied Best Track (Time Zone = UTC)
Year Month Day Hour Lat. Long. Pressure (hPa) Wind (kt) Class Image Chart
2007 3 2 18 -13.7 118.9 1000 20 2 Image --
2007 3 3 00 -13.7 118.1 998 25 2 Image --
2007 3 3 06 -13.7 117.7 994 25 2 Image --
2007 3 3 12 -13.7 117.3 994 25 2 Image --
2007 3 3 18 -14.0 116.7 994 25 2 Image --
2007 3 4 00 -14.4 116.3 994 25 2 Image --
2007 3 4 06 -14.3 116.1 994 25 2 Image --
2007 3 4 12 -14.5 116.1 994 25 2 Image --
2007 3 4 18 -14.6 115.5 994 25 2 Image --
2007 3 5 00 -14.5 114.8 994 25 2 Image --
2007 3 5 06 -14.4 114.2 994 25 2 Image --
2007 3 5 12 -14.2 113.4 992 30 2 Image --
2007 3 5 18 -14.1 112.3 992 30 2 Image --
2007 3 6 00 -14.1 111.0 992 30 2 Image --
2007 3 6 06 -13.5 110.1 992 30 2 Image --
2007 3 6 12 -13.3 109.8 990 30 2 Image --
2007 3 6 18 -13.0 108.9 984 35 3 Image --
2007 3 7 00 -12.5 108.3 982 40 3 Image --
2007 3 7 06 -12.5 107.8 978 45 3 Image --
2007 3 7 12 -12.6 107.1 974 50 4 Image --
2007 3 7 18 -12.8 106.3 966 55 4 Image --
2007 3 8 00 -12.4 106.0 966 55 4 Image --
2007 3 8 06 -12.5 105.9 976 50 4 Image --
2007 3 8 12 -12.9 106.3 976 50 4 Image --
2007 3 8 18 -13.4 107.0 976 50 4 Image --
2007 3 9 00 -13.9 107.7 978 50 4 Image --
2007 3 9 06 -14.4 108.3 970 55 4 Image --
2007 3 9 12 -14.9 109.2 964 65 5 Image --
2007 3 9 18 -15.5 109.8 960 70 5 Image --
2007 3 10 00 -15.9 110.6 964 65 5 Image --
2007 3 10 06 -17.0 111.4 966 60 4 Image --
2007 3 10 12 -17.8 112.4 968 55 4 Image --
2007 3 10 18 -18.3 113.1 976 50 4 Image --
2007 3 11 00 -18.9 113.9 978 50 4 Image --
2007 3 11 06 -19.2 114.5 986 40 3 Image --
2007 3 11 12 -19.4 115.6 988 35 3 Image --
2007 3 11 18 -19.6 117.0 988 35 3 Image --
2007 3 12 00 -19.9 118.3 988 35 3 Image --
2007 3 12 03 -20.0 118.9 992 30 2 Image --
2007 3 12 06 -20.3 119.7 992 25 2 Image --
< Cyclone 200711 2007 Season Cyclone 200713 >

Help